This is the latest recevied weather packets stored in our database for station/object OH2EGI-2. If no packets are shown the sender has not sent any weather packets the latest 10 day(s).
| Time | Temp. | Humidity | Pressure | Rain* | Wind** | Luminosity | Snow |
|---|---|---|---|---|---|---|---|
| 1777543916 | 18.33° C | 48% | 1012.8 hPa | 0 mm | - | - | - |
| 1777543616 | 17.78° C | 50% | 1012.7 hPa | 0 mm | - | - | - |
| 1777543316 | 16.67° C | 51% | 1012.8 hPa | 0 mm | - | - | - |
| 1777543017 | 16.11° C | 52% | 1013.1 hPa | 0 mm | - | - | - |
| 1777542717 | 16.11° C | 52% | 1012.9 hPa | 0 mm | - | - | - |
| 1777542416 | 16.67° C | 51% | 1013.1 hPa | 0 mm | - | - | - |
| 1777542117 | 16.67° C | 52% | 1013.1 hPa | 0 mm | - | - | - |
| 1777541817 | 15.56° C | 54% | 1013.1 hPa | 0 mm | - | - | - |
| 1777541517 | 15° C | 55% | 1013.2 hPa | 0 mm | - | - | - |
| 1777541217 | 15° C | 56% | 1013.3 hPa | 0 mm | - | - | - |
| 1777540917 | 14.44° C | 57% | 1013.3 hPa | 0 mm | - | - | - |
| 1777540617 | 14.44° C | 58% | 1013.3 hPa | 0 mm | - | - | - |
| 1777540317 | 13.89° C | 59% | 1013.1 hPa | 0 mm | - | - | - |
| 1777540017 | 13.89° C | 60% | 1013 hPa | 0 mm | - | - | - |
| 1777539717 | 13.33° C | 61% | 1013.1 hPa | 0 mm | - | - | - |
| 1777539417 | 12.78° C | 61% | 1013.1 hPa | 0 mm | - | - | - |
| 1777539117 | 12.78° C | 62% | 1013.1 hPa | 0 mm | - | - | - |
| 1777538817 | 12.78° C | 63% | 1013.2 hPa | 0 mm | - | - | - |
| 1777538517 | 12.22° C | 65% | 1013.2 hPa | 0 mm | - | - | - |
| 1777538217 | 11.67° C | 65% | 1013.3 hPa | 0 mm | - | - | - |
| 1777537917 | 11.11° C | 67% | 1013.4 hPa | 0 mm | - | - | - |
| 1777537617 | 10.56° C | 68% | 1013.5 hPa | 0 mm | - | - | - |
| 1777537317 | 10° C | 67% | 1013.5 hPa | 0 mm | - | - | - |
| 1777537017 | 10° C | 67% | 1013.5 hPa | 0 mm | - | - | - |
| 1777536717 | 9.44° C | 66% | 1013.6 hPa | 0 mm | - | - | - |
* Rain latest hour (hover to see other rain measurements)
** Current wind speed in m/s (hover to see current wind gust speed)